DW7764 Weather Reports


Display with metric or nautical units.
time (UTC)temp
F
wind
direction
speed
MPH
gust
MPH
rain 1hr
in
rain 24hr
in
rain mn
in
humidity
%
barometer
mb
20260508130035 68 126 4.0 8.0 0.00 0.00 0.00 61 1019.2
20260508124532 67 108 2.0 9.0 0.00 0.00 0.00 61 1019.3
20260508123036 68 131 2.0 7.0 0.00 0.00 0.00 62 1019.4
20260508121531 67 127 5.0 8.0 0.00 0.00 0.00 65 1019.4
20260508120030 65 101 3.0 8.0 0.00 0.00 0.00 69 1019.4
20260508114530 65 123 3.0 8.0 0.00 0.00 0.00 67 1019.3
20260508113029 66 70 3.0 7.0 0.00 0.00 0.00 65 1019.3
20260508111528 66 193 4.0 7.0 0.00 0.00 0.00 68 1019.3
20260508110031 66 180 4.0 8.0 0.00 0.00 0.00 65 1019.2
20260508104527 65 143 1.0 6.0 0.00 0.00 0.00 66 1019.3
20260508103030 65 167 2.0 8.0 0.00 0.00 0.00 68 1019.5
20260508101534 67 138 2.0 7.0 0.00 0.00 0.00 66 1019.6
20260508100025 67 16 0.0 4.0 0.00 0.00 0.00 68 1019.6
20260508094520 65 121 0.0 5.0 0.00 0.00 0.00 71 1019.7
20260508093037 64 163 2.0 5.0 0.00 0.00 0.00 72 1019.7
20260508091522 64 108 1.0 5.0 0.00 0.00 0.00 73 1019.6
20260508090026 63 121 1.0 5.0 0.00 0.00 0.00 74 1019.5
20260508084513 63 102 2.0 5.0 0.00 0.00 0.00 71 1019.4
20260508083015 64 110 0.0 1.0 0.00 0.00 0.00 70 1019.2
20260508081507 63 132 0.0 3.0 0.00 0.00 0.00 75 1019.0
20260508080005 61 125 0.0 2.0 0.00 0.00 0.00 77 1018.9
20260508074504 60 133 1.0 3.0 0.00 0.00 0.00 77 1018.8
20260508073059 59 131 1.0 3.0 0.00 0.00 0.00 79 1018.8
20260508071553 57 140 0.0 0.0 0.00 0.00 0.00 84 1018.5
20260508070048 55 139 0.0 3.0 0.00 0.00 0.00 88 1018.4
20260508064545 52 131 0.0 1.0 0.00 0.00 0.00 92 1018.4
20260508063045 50 131 0.0 0.0 0.00 0.00 0.00 93 1018.5
20260508061544 49 131 0.0 0.0 0.00 0.00 0.00 93 1018.4
20260508060044 48 131 0.0 0.0 0.00 0.00 0.00 93 1018.3
20260508054603 47 131 0.0 0.0 0.00 0.00 0.00 93 1018.3
20260508053043 47 131 0.0 0.0 0.00 0.00 0.00 92 1018.0
20260508051542 47 131 0.0 0.0 0.00 0.00 0.00 94 1017.8
20260508050041 47 131 0.0 0.0 0.00 0.00 0.00 93 1017.7
20260508044554 47 131 0.0 0.0 0.00 0.00 0.00 93 1017.6
20260508043042 47 131 0.0 0.0 0.00 0.00 0.00 93 1017.6
20260508041549 47 131 0.0 0.0 0.00 0.00 0.00 93 1017.5
20260508040039 47 131 0.0 1.0 0.00 0.00 0.00 94 1017.4
20260508034540 47 131 0.0 1.0 0.00 0.00 0.00 94 1017.4
20260508033038 47 131 0.0 1.0 0.00 0.00 0.00 94 1017.4
20260508031543 47 131 0.0 0.0 0.00 0.00 0.00 95 1017.4
20260508030039 48 131 0.0 0.0 0.00 0.00 0.00 95 1017.5
20260508024529 48 131 0.0 0.0 0.00 0.00 0.00 94 1017.4
20260508023038 48 131 0.0 2.0 0.00 0.00 0.00 95 1017.5
20260508021527 49 131 0.0 0.0 0.00 0.00 0.00 94 1017.6
20260508020021 50 131 0.0 0.0 0.00 0.00 0.00 94 1017.7
20260508014520 50 131 0.0 0.0 0.00 0.00 0.00 94 1017.7
20260508013017 51 131 0.0 0.0 0.00 0.00 0.00 93 1017.9
20260508011516 51 131 0.0 0.0 0.00 0.00 0.00 93 1018.1
20260508010022 52 131 0.0 1.0 0.00 0.00 0.00 93 1018.2
20260508004520 52 131 0.0 0.0 0.00 0.00 0.00 94 1018.3
20260508003014 52 131 0.0 0.0 0.00 0.00 0.00 94 1018.3
20260508001511 52 131 0.0 0.0 0.00 0.00 0.00 94 1018.5
20260508000007 52 131 0.0 0.0 0.00 0.00 0.00 94 1018.6
20260507234506 52 131 0.0 0.0 0.00 0.00 0.00 94 1018.7
20260507233005 53 131 0.0 1.0 0.00 0.00 0.00 94 1018.7
20260507231503 53 131 0.0 0.0 0.00 0.00 0.00 94 1018.7
20260507230001 53 131 0.0 2.0 0.00 0.00 0.00 94 1018.9
20260507224606 53 131 0.0 0.0 0.00 0.00 0.00 94 1019.0
20260507223100 53 131 0.0 0.0 0.00 0.00 0.00 94 1019.2
20260507221556 53 131 0.0 1.0 0.00 0.00 0.00 94 1019.3
20260507220055 54 131 0.0 0.0 0.00 0.00 0.00 93 1019.2
20260507214554 54 131 0.0 1.0 0.00 0.00 0.00 93 1019.3
20260507213054 54 131 1.0 2.0 0.00 0.00 0.00 93 1019.3
20260507211554 55 131 0.0 0.0 0.00 0.00 0.00 92 1019.3
20260507210115 55 131 0.0 1.0 0.00 0.00 0.00 92 1019.2
20260507204557 55 131 0.0 0.0 0.00 0.00 0.00 92 1019.2
20260507203057 55 131 0.0 0.0 0.00 0.00 0.00 91 1019.2
20260507201551 55 131 0.0 0.0 0.00 0.00 0.00 90 1019.1
20260507200103 56 131 0.0 0.0 0.00 0.00 0.00 89 1018.9
20260507194550 56 131 0.0 0.0 0.00 0.00 0.00 88 1018.7
20260507193109 57 131 0.0 0.0 0.00 0.00 0.00 86 1018.4
20260507191556 58 131 0.0 0.0 0.00 0.00 0.00 84 1018.2
20260507190049 59 131 0.0 3.0 0.00 0.00 0.00 81 1018.0
20260507184547 60 119 1.0 3.0 0.00 0.00 0.00 80 1017.7
20260507183057 60 176 0.0 2.0 0.00 0.00 0.00 81 1017.7
20260507181547 60 121 1.0 7.0 0.00 0.00 0.00 79 1017.5
20260507180046 61 121 3.0 7.0 0.00 0.00 0.00 79 1017.4
20260507174545 62 135 2.0 6.0 0.00 0.00 0.00 78 1017.3
20260507173107 62 148 2.0 7.0 0.00 0.00 0.00 75 1017.2
20260507171547 63 205 2.0 8.0 0.00 0.00 0.00 74 1017.1
20260507170048 63 109 3.0 7.0 0.00 0.00 0.00 73 1017.0
20260507164550 63 145 1.0 6.0 0.00 0.00 0.00 71 1017.0
20260507163042 63 217 1.0 6.0 0.00 0.00 0.00 71 1016.9
20260507161547 63 129 3.0 8.0 0.00 0.00 0.00 72 1016.8
20260507160059 63 83 4.0 8.0 0.00 0.00 0.00 71 1016.8
20260507154540 64 167 4.0 11.0 0.00 0.00 0.00 70 1017.0
20260507153039 65 174 3.0 10.0 0.00 0.00 0.00 67 1017.0
20260507151539 65 137 3.0 8.0 0.00 0.00 0.00 66 1016.9
20260507150038 65 158 3.0 9.0 0.00 0.00 0.00 65 1016.9
20260507144545 65 164 2.0 12.0 0.00 0.00 0.00 64 1017.1
20260507143035 65 103 2.0 9.0 0.00 0.00 0.00 66 1017.2
20260507141534 65 128 5.0 9.0 0.00 0.00 0.00 64 1017.3
20260507140035 65 120 3.0 11.0 0.00 0.00 0.00 66 1017.5
20260507134531 65 68 4.0 12.0 0.00 0.00 0.00 65 1017.8
20260507133030 66 88 3.0 16.0 0.00 0.00 0.00 66 1017.8
20260507131531 66 178 4.0 10.0 0.00 0.00 0.00 67 1017.9